Inquirer Daily News

Weather

Get conditions and forecasts for any City, State, ZIP code or Country:  
Northeast Philadelphia, PA
on Wednesday, December 12, 2012

Wednesday
Previous Day Next Day
Daily Summary
 ActualAverage (KTTN)Record (KTTN)
Temperature
Mean Temperature °F 36°F  
Max Temperature 44°F 44°F 67°F (1931)
Min Temperature 34°F 29°F 4°F (1988)
Degree Days
Heating Degree Days 26 29  
Month to date heating degree days 321  
Since 1 July heating degree days 1297  
Cooling Degree Days 0 0  
Month to date cooling degree days 0  
Year to date cooling degree days 965  
Moisture
Dew Point 25°F   
Average Humidity 60    
Maximum Humidity 70    
Minimum Humidity 45    
Precipitation
Precipitation 0.00 in 0.15 in 1.62 in (1894)
Month to date precipitation 1.65  
Year to date precipitation 44.39  
Wind
Wind Speed 3 mph   
Max Wind Speed 9 mph   
Max Gust Speed mph   
Visibility 10 miles   
Events     

Key: T is trace of precipitation, MM is missing value
Source: NWS Daily Summary
Time(EST)TemperatureDew PointHumidity Pressure Visibility Wind DirectionWind SpeedGust SpeedPrecipitationEvents Conditions
12:54 AM 37.0°F 26.1°F 65% 30.23 in 10.0 miles Calm Calm - N/A   Clear
1:54 AM 35.1°F 26.1°F 70% 30.25 in 10.0 miles NNW 3.5 mph - N/A   Clear
2:54 AM 35.1°F 26.1°F 70% 30.28 in 10.0 miles NW 3.5 mph - N/A   Clear
3:54 AM 35.1°F 26.1°F 70% 30.30 in 10.0 miles NNW 4.6 mph - N/A   Clear
4:54 AM 35.1°F 25.0°F 67% 30.32 in 10.0 miles Calm Calm - N/A   Clear
5:54 AM 34.0°F 25.0°F 70% 30.34 in 10.0 miles NNW 4.6 mph - N/A   Clear
6:54 AM 34.0°F 25.0°F 70% 30.36 in 10.0 miles Calm Calm - N/A   Clear
7:54 AM 35.1°F 26.1°F 70% 30.38 in 10.0 miles Calm Calm - N/A   Clear
8:54 AM 39.9°F 27.0°F 60% 30.39 in 10.0 miles NNE 3.5 mph - N/A   Clear
9:54 AM 42.1°F 28.0°F 58% 30.41 in 10.0 miles Calm Calm - N/A   Clear
10:54 AM 44.1°F 24.1°F 45% 30.42 in 10.0 miles NW 5.8 mph - N/A   Clear
11:54 AM 44.1°F 24.1°F 45% 30.41 in 10.0 miles NNW 9.2 mph - N/A   Clear
12:54 PM 44.1°F 24.1°F 45% 30.40 in 10.0 miles NNE 8.1 mph - N/A   Clear
1:54 PM 44.1°F 25.0°F 47% 30.40 in 10.0 miles North 6.9 mph - N/A   Clear
2:54 PM 43.0°F 25.0°F 49% 30.39 in 10.0 miles NNW 6.9 mph - N/A   Clear
3:54 PM 41.0°F 25.0°F 53% 30.40 in 10.0 miles NNW 5.8 mph - N/A   Clear
4:54 PM 41.0°F 24.1°F 51% 30.42 in 10.0 miles NW 4.6 mph - N/A   Clear
5:54 PM 37.9°F 26.1°F 62% 30.42 in 10.0 miles North 4.6 mph - N/A   Clear
6:54 PM 39.2°F 24.8°F 56% 30.40 in 10.0 miles North 4.6 mph - N/A   Clear
7:54 PM 37.9°F 24.1°F 57% 30.43 in 10.0 miles North 3.5 mph - N/A   Clear
8:54 PM 37.0°F 24.1°F 59% 30.46 in 10.0 miles Calm Calm - N/A   Clear
9:54 PM 35.1°F 25.0°F 67% 30.44 in 10.0 miles North 4.6 mph - N/A   Clear
10:54 PM 37.0°F 24.1°F 59% 30.45 in 10.0 miles Calm Calm - N/A   Clear
11:54 PM 35.1°F 25.0°F 67% 30.44 in 10.0 miles North 4.6 mph - N/A   Clear
Astronomy
Sunrise:07:13 AM (EST) Moon Rise:06:14 AM (EST)12/12
Sunset:04:34 PM (EST) Moon Set:04:09 PM (EST)12/12
Moon Phase
Dec. 12 Dec. 13 Dec. 20 Dec. 28 Jan. 04

Copyright © 2014 The Weather Underground, Inc.